When you browse on this site, cookies collect data to enhance your experience and personalize the content and advertising you see.
Visit our Privacy Policy to learn more. By continuing to use the site, you agree to this use of cookies and data.
  • In Czech Republic
  • List of Countries
  • For 7 days
  • Water Temperature
  • Weather Map
  • Weather Widgets
  • user-avatar
    Login

    Hourly Weather Biskira

    Today, 28 February, Friday

    Time Temperature Precipitation Wind Pressure Humidity
    00:00 +18°C° 0 mm 1 mps 756 mmHg 39%
    01:00 +16°C° 0 mm 1 mps 756 mmHg 41%
    02:00 +15°C° 0 mm 1 mps 756 mmHg 42%
    03:00 +15°C° 0 mm 1 mps 756 mmHg 44%
    04:00 +15°C° 0 mm 1 mps 756 mmHg 46%
    05:00 +14°C° 0 mm 1 mps 756 mmHg 47%
    06:00 +14°C° 0 mm 2 mps 756 mmHg 49%
    07:00 +16°C° 0 mm 2 mps 757 mmHg 44%
    08:00 +18°C° 0 mm 2 mps 757 mmHg 38%
    09:00 +19°C° 0 mm 2 mps 757 mmHg 33%
    10:00 +21°C° 0 mm 1 mps 757 mmHg 31%
    11:00 +22°C° 0 mm 1 mps 757 mmHg 29%
    12:00 +24°C° 0 mm 1 mps 757 mmHg 26%
    13:00 +24°C° 0 mm 1 mps 757 mmHg 25%
    14:00 +24°C° 0 mm 1 mps 756 mmHg 24%
    15:00 +25°C° 0 mm 1 mps 756 mmHg 23%
    16:00 +24°C° 0 mm 1 mps 756 mmHg 25%
    17:00 +23°C° 0 mm 1 mps 756 mmHg 28%
    18:00 +21°C° 0 mm 1 mps 756 mmHg 30%
    19:00 +21°C° 0 mm 1 mps 756 mmHg 31%
    20:00 +20°C° 0 mm 1 mps 756 mmHg 32%
    21:00 +20°C° 0 mm 1 mps 756 mmHg 33%
    22:00 +19°C° 0 mm 1 mps 756 mmHg 33%
    23:00 +18°C° 0 mm 2 mps 756 mmHg 33%

    Tomorrow, 29 February, Saturday

    Time Temperature Precipitation Wind Pressure Humidity
    00:00 +18°C° 0 mm 2 mps 756 mmHg 34%
    01:00 +17°C° 0 mm 2 mps 756 mmHg 35%
    02:00 +16°C° 0 mm 2 mps 755 mmHg 36%
    03:00 +15°C° 0 mm 2 mps 755 mmHg 37%
    04:00 +15°C° 0 mm 2 mps 755 mmHg 37%
    05:00 +14°C° 0 mm 3 mps 754 mmHg 37%
    06:00 +14°C° 0 mm 3 mps 754 mmHg 37%
    07:00 +17°C° 0 mm 4 mps 755 mmHg 34%
    08:00 +18°C° 0 mm 4 mps 755 mmHg 31%
    09:00 +20°C° 0 mm 4 mps 755 mmHg 28%
    10:00 +21°C° 0 mm 4 mps 754 mmHg 26%
    11:00 +22°C° 0 mm 4 mps 754 mmHg 23%
    12:00 +23°C° 0 mm 4 mps 754 mmHg 21%
    13:00 +24°C° 0 mm 3 mps 753 mmHg 20%
    14:00 +25°C° 0 mm 3 mps 752 mmHg 19%
    15:00 +25°C° 0 mm 2 mps 752 mmHg 18%
    16:00 +24°C° 0 mm 2 mps 752 mmHg 21%
    17:00 +23°C° 0 mm 2 mps 752 mmHg 23%
    18:00 +22°C° 0 mm 1 mps 752 mmHg 25%
    19:00 +21°C° 0 mm 1 mps 752 mmHg 26%
    20:00 +20°C° 0 mm 1 mps 753 mmHg 28%
    21:00 +18°C° 0 mm 0 mps 753 mmHg 29%
    22:00 +17°C° 0 mm 0 mps 753 mmHg 29%
    23:00 +17°C° 0 mm 0 mps 753 mmHg 30%

    Day after tomorrow, 1 March, Sunday

    Time Temperature Precipitation Wind Pressure Humidity
    00:00 +16°C° 0 mm 0 mps 752 mmHg 31%
    01:00 +16°C° 0 mm 0 mps 752 mmHg 31%
    02:00 +15°C° 0 mm 0 mps 752 mmHg 32%
    03:00 +15°C° 0 mm 0 mps 752 mmHg 33%
    04:00 +16°C° 0 mm 1 mps 752 mmHg 33%
    05:00 +16°C° 0 mm 1 mps 752 mmHg 34%
    06:00 +16°C° 0 mm 1 mps 752 mmHg 34%
    07:00 +18°C° 0 mm 2 mps 752 mmHg 32%
    08:00 +20°C° 0 mm 3 mps 752 mmHg 29%
    09:00 +22°C° 0 mm 4 mps 753 mmHg 27%
    10:00 +23°C° 0 mm 4 mps 752 mmHg 26%
    11:00 +25°C° 0 mm 4 mps 752 mmHg 25%
    12:00 +26°C° 0 mm 4 mps 752 mmHg 24%
    13:00 +26°C° 0 mm 5 mps 752 mmHg 24%
    14:00 +26°C° 0 mm 6 mps 751 mmHg 25%
    15:00 +27°C° 0 mm 7 mps 751 mmHg 26%
    16:00 +26°C° 0 mm 6 mps 751 mmHg 29%
    17:00 +25°C° 0 mm 5 mps 751 mmHg 32%
    18:00 +23°C° 0 mm 4 mps 751 mmHg 35%
    19:00 +22°C° 0 mm 4 mps 752 mmHg 38%
    20:00 +22°C° 0 mm 5 mps 752 mmHg 41%
    21:00 +21°C° 0 mm 5 mps 753 mmHg 44%
    22:00 +20°C° 0 mm 5 mps 753 mmHg 45%
    23:00 +20°C° 0 mm 4 mps 753 mmHg 47%

    2 March, Monday

    Time Temperature Precipitation Wind Pressure Humidity
    00:00 +19°C° 0 mm 4 mps 753 mmHg 49%
    01:00 +19°C° 0 mm 4 mps 753 mmHg 52%
    02:00 +18°C° 0 mm 4 mps 752 mmHg 54%
    03:00 +17°C° 0 mm 5 mps 752 mmHg 56%
    04:00 +17°C° 0 mm 4 mps 751 mmHg 58%
    05:00 +17°C° 0 mm 4 mps 751 mmHg 59%
    06:00 +17°C° 0 mm 4 mps 751 mmHg 60%
    07:00 +18°C° 0 mm 4 mps 751 mmHg 54%
    08:00 +20°C° 0 mm 4 mps 751 mmHg 48%
    09:00 +21°C° 0 mm 3 mps 752 mmHg 42%
    10:00 +22°C° 0 mm 4 mps 751 mmHg 40%
    11:00 +23°C° 0 mm 4 mps 751 mmHg 37%
    12:00 +25°C° 0 mm 4 mps 750 mmHg 34%
    13:00 +26°C° 0 mm 5 mps 750 mmHg 33%
    14:00 +26°C° 0 mm 6 mps 749 mmHg 32%
    15:00 +27°C° 0 mm 7 mps 748 mmHg 30%
    16:00 +26°C° 0 mm 7 mps 748 mmHg 33%
    17:00 +24°C° 0 mm 7 mps 748 mmHg 35%
    18:00 +23°C° 0 mm 7 mps 748 mmHg 37%
    19:00 +22°C° 0 mm 6 mps 748 mmHg 41%
    20:00 +21°C° 0 mm 6 mps 748 mmHg 45%
    21:00 +20°C° 0 mm 5 mps 749 mmHg 49%
    22:00 +19°C° 0 mm 5 mps 749 mmHg 52%
    23:00 +19°C° 0 mm 5 mps 749 mmHg 55%

    3 March, Tuesday

    Time Temperature Precipitation Wind Pressure Humidity
    00:00 +17°C° 0 mm 5 mps 749 mmHg 58%
    01:00 +17°C° 0 mm 6 mps 748 mmHg 60%
    02:00 +16°C° 0 mm 6 mps 748 mmHg 61%
    03:00 +16°C° 0 mm 6 mps 748 mmHg 63%
    04:00 +16°C° 0 mm 7 mps 749 mmHg 60%
    05:00 +15°C° 0 mm 8 mps 749 mmHg 57%
    06:00 +15°C° 0 mm 9 mps 750 mmHg 53%
    07:00 +14°C° 0 mm 10 mps 750 mmHg 45%
    08:00 +16°C° 0 mm 10 mps 751 mmHg 37%
    09:00 +17°C° 0 mm 10 mps 752 mmHg 28%
    10:00 +18°C° 0 mm 10 mps 751 mmHg 25%
    11:00 +19°C° 0 mm 10 mps 751 mmHg 22%
    12:00 +21°C° 0 mm 10 mps 751 mmHg 19%
    13:00 +21°C° 0 mm 10 mps 750 mmHg 19%
    14:00 +22°C° 0 mm 10 mps 750 mmHg 19%
    15:00 +22°C° 0 mm 10 mps 750 mmHg 18%
    16:00 +21°C° 0 mm 9 mps 750 mmHg 22%
    17:00 +21°C° 0 mm 7 mps 750 mmHg 25%
    18:00 +20°C° 0 mm 6 mps 750 mmHg 29%
    19:00 +19°C° 0 mm 6 mps 750 mmHg 30%
    20:00 +19°C° 0 mm 6 mps 751 mmHg 31%
    21:00 +17°C° 0 mm 6 mps 751 mmHg 33%
    22:00 +17°C° 0 mm 6 mps 751 mmHg 36%
    23:00 +16°C° 0 mm 5 mps 751 mmHg 39%

    4 March, Wednesday

    Time Temperature Precipitation Wind Pressure Humidity
    00:00 +16°C° 0 mm 5 mps 750 mmHg 41%
    01:00 +16°C° 0 mm 5 mps 750 mmHg 43%
    02:00 +16°C° 0 mm 6 mps 750 mmHg 44%
    03:00 +16°C° 0 mm 6 mps 750 mmHg 46%
    04:00 +15°C° 0 mm 6 mps 750 mmHg 51%
    05:00 +15°C° 0 mm 5 mps 750 mmHg 56%
    06:00 +15°C° 0 mm 5 mps 751 mmHg 60%
    07:00 +16°C° 0 mm 6 mps 751 mmHg 54%
    08:00 +19°C° 0 mm 6 mps 752 mmHg 47%
    09:00 +20°C° 0 mm 7 mps 752 mmHg 41%
    10:00 +22°C° 0 mm 7 mps 752 mmHg 37%
    11:00 +23°C° 0 mm 7 mps 752 mmHg 34%
    12:00 +24°C° 0 mm 7 mps 752 mmHg 30%
    13:00 +24°C° 0 mm 8 mps 752 mmHg 31%
    14:00 +24°C° 0 mm 8 mps 752 mmHg 32%
    15:00 +26°C° 0 mm 8 mps 751 mmHg 33%
    16:00 +24°C° 0 mm 7 mps 751 mmHg 37%
    17:00 +23°C° 0 mm 6 mps 752 mmHg 40%
    18:00 +22°C° 0 mm 6 mps 752 mmHg 44%
    19:00 +21°C° 0 mm 5 mps 752 mmHg 46%
    20:00 +20°C° 0 mm 5 mps 752 mmHg 49%
    21:00 +19°C° 0 mm 4 mps 752 mmHg 51%
    22:00 +19°C° 0 mm 4 mps 752 mmHg 52%
    23:00 +18°C° 0 mm 3 mps 752 mmHg 54%
    Show more